Home   Weather   Kingston   Past weeks
Flag for Canada

Past Weather in Kingston, Ontario, Canada — Yesterday and Last 2 Weeks

Now
81 °F

Overcast.


Feels Like: 87 °F
Forecast: 83 / 70 °F
Wind: 7 mph from West

Location: Kingston

Current Time: Jul 20, 2019 at 10:48:08 pm

Latest Report: Jul 20, 2019 at 10:00 pm


Visibility: 15 mi

Pressure: 29.75 "Hg

Humidity: 89%

Dew Point: 77 °F

Location of KingstonLocation

Past Weather in Kingston — Graph

°F

Kingston Temperature Yesterday

Maximum temperature yesterday: 84 °F (at 4:00 pm)
Minimum temperature yesterday: 72 °F (at 6:00 am)
Average temperature yesterday: 78 °F

High & Low Weather Summary for the Past Weeks

 TemperatureHumidityPressure
High88 °F (Jul 20, 3:00 pm)100% (Jul 5, 9:00 pm)30.11 "Hg (Jul 5, 9:00 pm)
Low50 °F (Jul 8, 6:00 am)34% (Jul 8, 5:00 pm)29.68 "Hg (Jul 11, 6:18 pm)
Average73 °F82%29.91 "Hg
* Reported Jul 5 9:00 pm — Jul 20 9:00 pm, Kingston. Weather by CustomWeather, © 2019

Note: Actual official high and low records may vary slightly from our data, if they occured in-between our weather recording intervals... More about our weather records

Advertising

Kingston Weather History for the Previous 24 Hours

Scroll right to see more
 ConditionsComfort  
Time TempWeatherWind HumidityBarometerVisibility
9:00 pm
Sat, Jul 20
79 °FOvercast.13 mph94%29.72 "Hg15 mi
8:00 pm82 °FOvercast.15 mph79%29.73 "Hg15 mi
7:00 pm82 °FPartly sunny.14 mph79%29.73 "Hg15 mi
6:00 pm84 °FBroken clouds.15 mph79%29.72 "Hg12 mi
5:00 pm86 °FBroken clouds.18 mph75%29.72 "Hg12 mi
4:00 pm86 °FBroken clouds.20 mph75%29.72 "Hg12 mi
3:00 pm88 °FPartly sunny.15 mph75%29.73 "Hg12 mi
2:00 pm86 °FPartly sunny.12 mph79%29.74 "Hg12 mi
1:00 pm81 °FBroken clouds.9 mph89%29.76 "Hg12 mi
12:00 pm79 °FBroken clouds.14 mph94%29.77 "Hg12 mi
11:00 am77 °FBroken clouds.14 mph100%29.79 "Hg10 mi
10:00 am77 °FFog.14 mph100%29.79 "Hg4 mi
9:00 am75 °FFog.6 mph100%29.81 "Hg4 mi
8:00 am75 °FFog.2 mph100%29.81 "Hg5 mi
7:00 am73 °FFog.2 mph100%29.81 "Hg5 mi
6:00 am72 °FFog.2 mph100%29.80 "Hg12 mi
11:00 pm
Fri, Jul 19
75 °FPassing clouds.9 mph94%29.80 "Hg15 mi
10:00 pm75 °FPassing clouds.14 mph94%29.78 "Hg15 mi
Weather by CustomWeather, © 2019

See weather overview